Location: Saint-Maurice-d�Ard�che
(44.5216°N, 4.4002°E)
Time: 16:02:06
(UTC+00:00)

USA 186 - Pass Details

Date: 30 March 2020
Orbit: 263 x 446 km, 96.9° (Epoch: 25 May)

Event Time Altitude Azimuth Distance (km) Brightness Sun altitude
Exits shadow 19:20:08 - 172° (S) 2,089 5.0 -13.4°
Reaches altitude 10° 19:21:18 10° 173° (S) 1,595 4.4 -13.5°
Maximum altitude 19:24:44 73° 258° (WSW) 482 2.1 -14.1°
Drops below altitude 10° 19:28:09 10° 344° (NNW) 1,581 5.2 -14.7°
Sets 19:30:10 0° 347° (NNW) 2,439 6.1 -15.0°
